TimePDT,TemperatureF,Dew PointF,Humidity,Sea Level PressureIn,VisibilityMPH,Wind Direction,Wind SpeedMPH,Gust SpeedMPH,PrecipitationIn,Events,Conditions,WindDirDegrees,DateUTC
12:55 AM,48.9,39.9,71,30.04,10.0,Calm,Calm,-,N/A,,Clear,0,2011-10-28 07:55:00
1:55 AM,50.0,39.0,66,30.04,10.0,NNE,3.5,-,N/A,,Clear,30,2011-10-28 08:55:00
2:55 AM,48.0,37.9,68,30.03,10.0,Calm,Calm,-,N/A,,Clear,0,2011-10-28 09:55:00
3:55 AM,48.0,37.0,66,30.02,10.0,Calm,Calm,-,N/A,,Clear,0,2011-10-28 10:55:00
4:55 AM,48.9,36.0,61,30.03,10.0,Calm,Calm,-,N/A,,Clear,0,2011-10-28 11:55:00
5:55 AM,46.9,30.9,54,30.04,10.0,Calm,Calm,-,N/A,,Clear,0,2011-10-28 12:55:00
6:55 AM,46.0,33.1,61,30.04,10.0,Calm,Calm,-,N/A,,Clear,0,2011-10-28 13:55:00
8:55 AM,59.0,35.1,41,30.08,10.0,Calm,Calm,-,N/A,,Clear,0,2011-10-28 15:55:00
9:55 AM,70.0,34.0,27,30.08,10.0,Calm,Calm,-,N/A,,Clear,0,2011-10-28 16:55:00
10:55 AM,73.9,39.0,28,30.09,10.0,SSW,5.8,-,N/A,,Clear,210,2011-10-28 17:55:00
11:55 AM,75.0,39.9,28,30.08,10.0,SSW,9.2,-,N/A,,Clear,210,2011-10-28 18:55:00
12:55 PM,75.0,44.1,33,30.07,10.0,SW,11.5,-,N/A,,Clear,220,2011-10-28 19:55:00
1:55 PM,77.0,41.0,28,30.05,10.0,West,9.2,-,N/A,,Clear,260,2011-10-28 20:55:00
2:55 PM,79.0,33.1,19,30.03,10.0,SW,8.1,-,N/A,,Clear,230,2011-10-28 21:55:00
3:55 PM,77.0,39.0,25,30.02,10.0,SSW,6.9,-,N/A,,Clear,210,2011-10-28 22:55:00
4:55 PM,73.9,30.9,21,30.03,10.0,West,8.1,-,N/A,,Clear,270,2011-10-28 23:55:00
5:55 PM,69.1,45.0,42,30.04,10.0,WSW,4.6,-,N/A,,Clear,240,2011-10-29 00:55:00
7:55 PM,62.1,46.0,56,30.07,10.0,Calm,Calm,-,N/A,,Clear,0,2011-10-29 02:55:00
8:55 PM,61.0,43.0,52,30.07,10.0,NE,4.6,-,N/A,,Clear,50,2011-10-29 03:55:00
9:55 PM,55.9,44.1,64,30.08,10.0,Calm,Calm,-,N/A,,Clear,0,2011-10-29 04:55:00
10:55 PM,52.0,42.1,69,30.06,10.0,Calm,Calm,-,N/A,,Clear,0,2011-10-29 05:55:00
11:55 PM,53.1,39.0,59,30.06,10.0,Calm,Calm,-,N/A,,Clear,0,2011-10-29 06:55:00